| time (UTC) | temp F | wind direction | speed MPH | gust MPH | rain 1hr in | rain 24hr in | rain mn in | humidity % | barometer mb |
| 20260905232204 | 64 | 114 | 7.0 | 12.0 | 0.00 | 0.00 | 0.00 | 45 | 1020.0 |
| 20260905231204 | 64 | 102 | 6.0 | 10.0 | 0.00 | 0.00 | 0.00 | 44 | 1019.9 |
| 20260905230205 | 63 | 95 | 8.0 | 13.0 | 0.00 | 0.00 | 0.00 | 43 | 1020.0 |
| 20260905225306 | 65 | 103 | 6.0 | 10.0 | 0.00 | 0.00 | 0.00 | 41 | 1019.9 |
| 20260905223504 | 65 | 74 | 7.0 | 9.0 | 0.00 | 0.00 | 0.00 | 43 | 1019.9 |
| 20260905221603 | 63 | 91 | 9.0 | 15.0 | 0.00 | 0.00 | 0.00 | 46 | 1020.1 |
| 20260905215704 | 63 | 90 | 10.0 | 14.0 | 0.00 | 0.00 | 0.00 | 48 | 1020.3 |
| 20260905214705 | 62 | 107 | 9.0 | 13.0 | 0.00 | 0.00 | 0.00 | 49 | 1020.2 |
| 20260905212805 | 61 | 98 | 10.0 | 15.0 | 0.00 | 0.00 | 0.00 | 51 | 1020.5 |
| 20260905211806 | 62 | 85 | 5.0 | 10.0 | 0.00 | 0.00 | 0.00 | 47 | 1020.5 |
| 20260905210805 | 63 | 91 | 12.0 | 14.0 | 0.00 | 0.00 | 0.00 | 45 | 1020.2 |
| 20260905205806 | 63 | 103 | 6.0 | 9.0 | 0.00 | 0.00 | 0.00 | 44 | 1020.2 |
| 20260905203906 | 65 | 85 | 5.0 | 7.0 | 0.00 | 0.00 | 0.00 | 40 | 1020.1 |
| 20260905202907 | 66 | 111 | 1.0 | 1.0 | 0.00 | 0.00 | 0.00 | 40 | 1020.2 |
| 20260905201905 | 66 | 130 | 4.0 | 7.0 | 0.00 | 0.00 | 0.00 | 46 | 1020.2 |
| 20260905201004 | 71 | 215 | 1.0 | 2.0 | 0.00 | 0.00 | 0.00 | 100 | 1020.2 |
| 20260905195005 | 69 | 190 | 0.0 | 1.0 | 0.00 | 0.00 | 0.00 | 100 | 1020.5 |
| 20260905194006 | 68 | 202 | 0.0 | 1.0 | 0.00 | 0.00 | 0.00 | 100 | 1020.8 |
| 20260905193104 | 68 | 247 | 0.0 | 0.0 | 0.00 | 0.00 | 0.00 | 99 | 1020.8 |
| 20260905192105 | 68 | 204 | 0.0 | 1.0 | 0.00 | 0.00 | 0.00 | 100 | 1021.0 |
| 20260905191203 | 68 | 225 | 0.0 | 2.0 | 0.00 | 0.00 | 0.00 | 99 | 1020.9 |
| 20260905190205 | 68 | 218 | 2.0 | 3.0 | 0.00 | 0.00 | 0.00 | 100 | 1021.2 |
| 20260905185306 | 69 | 213 | 3.0 | 4.0 | 0.00 | 0.00 | 0.00 | 99 | 1021.1 |
| 20260905184304 | 66 | 220 | 1.0 | 4.0 | 0.00 | 0.00 | 0.00 | 100 | 1021.0 |
| 20260905184203 | 66 | 247 | 2.0 | 4.0 | 0.00 | 0.00 | 0.00 | 100 | 1021.1 |
| 20260905183206 | 70 | 214 | 3.0 | 4.0 | 0.00 | 0.00 | 0.00 | 99 | 1021.2 |
| 20260905182206 | 70 | 217 | 2.0 | 5.0 | 0.00 | 0.00 | 0.00 | 99 | 1021.2 |
| 20260905175403 | 69 | 145 | 1.0 | 2.0 | 0.00 | 0.00 | 0.00 | 98 | 1021.4 |
| 20260905174405 | 65 | 311 | 3.0 | 5.0 | 0.00 | 0.00 | 0.00 | 100 | 1021.6 |
| 20260905171504 | 57 | 225 | 1.0 | 1.0 | 0.00 | 0.00 | 0.00 | 52 | 1021.6 |
| 20260905170603 | 57 | 167 | 1.0 | 2.0 | 0.00 | 0.00 | 0.00 | 53 | 1021.8 |
| 20260905165606 | 56 | 67 | 3.0 | 4.0 | 0.00 | 0.00 | 0.00 | 64 | 1021.7 |
| 20260905163606 | 54 | 189 | 0.0 | 2.0 | 0.00 | 0.00 | 0.00 | 60 | 1021.8 |
| 20260905162605 | 53 | 210 | 1.0 | 2.0 | 0.00 | 0.00 | 0.00 | 62 | 1021.8 |
| 20260905160705 | 52 | 235 | 1.0 | 3.0 | 0.00 | 0.00 | 0.00 | 68 | 1021.9 |
| 20260905155704 | 50 | 207 | 3.0 | 4.0 | 0.00 | 0.00 | 0.00 | 71 | 1022.1 |
| 20260905154706 | 49 | 234 | 2.0 | 4.0 | 0.00 | 0.00 | 0.00 | 73 | 1022.1 |
| 20260905153706 | 48 | 225 | 3.0 | 4.0 | 0.00 | 0.00 | 0.00 | 75 | 1022.1 |
| 20260905152706 | 46 | 239 | 2.0 | 4.0 | 0.00 | 0.00 | 0.00 | 77 | 1022.1 |
| 20260905150803 | 45 | 222 | 3.0 | 5.0 | 0.00 | 0.00 | 0.00 | 81 | 1022.2 |
| 20260905145820 | 43 | 267 | 1.0 | 3.0 | 0.00 | 0.00 | 0.00 | 83 | 1022.1 |
| 20260905144906 | 42 | 265 | 3.0 | 5.0 | 0.00 | 0.00 | 0.00 | 83 | 1022.2 |
| 20260905143903 | 42 | 262 | 3.0 | 6.0 | 0.00 | 0.00 | 0.00 | 86 | 1021.9 |
| 20260905142905 | 41 | 226 | 2.0 | 6.0 | 0.00 | 0.00 | 0.00 | 87 | 1021.8 |
| 20260905141904 | 40 | 269 | 2.0 | 4.0 | 0.00 | 0.00 | 0.00 | 88 | 1021.8 |
| 20260905141805 | 40 | 271 | 3.0 | 6.0 | 0.00 | 0.00 | 0.00 | 89 | 1021.6 |
| 20260905140805 | 39 | 222 | 2.0 | 5.0 | 0.00 | 0.00 | 0.00 | 90 | 1021.5 |
| 20260905135807 | 37 | 237 | 1.0 | 4.0 | 0.00 | 0.00 | 0.00 | 91 | 1021.4 |
| 20260905132807 | 32 | 226 | 1.0 | 2.0 | 0.00 | 0.00 | 0.00 | 89 | 1021.3 |
| 20260905131806 | 28 | 270 | 0.0 | 3.0 | 0.00 | 0.00 | 0.00 | 90 | 1021.2 |
| 20260905130804 | 33 | 239 | 0.0 | 2.0 | 0.00 | 0.00 | 0.00 | 90 | 1021.2 |
| 20260905124805 | 32 | 201 | 2.0 | 2.0 | 0.00 | 0.00 | 0.00 | 89 | 1021.0 |
| 20260905123805 | 32 | 266 | 2.0 | 4.0 | 0.00 | 0.00 | 0.00 | 88 | 1020.9 |
| 20260905122808 | 34 | 252 | 0.0 | 2.0 | 0.00 | 0.00 | 0.00 | 88 | 1020.7 |
| 20260905121804 | 34 | 275 | 1.0 | 4.0 | 0.00 | 0.00 | 0.00 | 87 | 1020.6 |
| 20260905120804 | 33 | 294 | 3.0 | 4.0 | 0.00 | 0.00 | 0.00 | 87 | 1020.8 |
| 20260905115804 | 33 | 266 | 2.0 | 5.0 | 0.00 | 0.00 | 0.00 | 88 | 1020.8 |
| 20260905115702 | 33 | 258 | 3.0 | 4.0 | 0.00 | 0.00 | 0.00 | 87 | 1020.8 |
| 20260905113706 | 34 | 258 | 1.0 | 3.0 | 0.00 | 0.00 | 0.00 | 87 | 1020.6 |
| 20260905112803 | 36 | 209 | 2.0 | 3.0 | 0.00 | 0.00 | 0.00 | 87 | 1020.7 |
| 20260905111805 | 35 | 287 | 4.0 | 6.0 | 0.00 | 0.00 | 0.00 | 87 | 1020.6 |
| 20260905110804 | 36 | 269 | 2.0 | 5.0 | 0.00 | 0.00 | 0.00 | 87 | 1020.7 |
| 20260905105806 | 37 | 246 | 0.0 | 3.0 | 0.00 | 0.00 | 0.00 | 86 | 1020.6 |
| 20260905104805 | 37 | 245 | 1.0 | 3.0 | 0.00 | 0.00 | 0.00 | 86 | 1020.7 |
| 20260905103903 | 38 | 287 | 2.0 | 4.0 | 0.00 | 0.00 | 0.00 | 86 | 1020.5 |
| 20260905102905 | 38 | 243 | 1.0 | 4.0 | 0.00 | 0.00 | 0.00 | 87 | 1020.6 |
| 20260905101905 | 38 | 244 | 1.0 | 3.0 | 0.00 | 0.00 | 0.00 | 89 | 1020.3 |
| 20260905101804 | 39 | 251 | 3.0 | 5.0 | 0.00 | 0.00 | 0.00 | 89 | 1020.2 |
| 20260905100821 | 38 | 254 | 3.0 | 5.0 | 0.00 | 0.00 | 0.00 | 89 | 1020.2 |
| 20260905095805 | 39 | 225 | 0.0 | 0.0 | 0.00 | 0.00 | 0.00 | 88 | 1020.0 |
| 20260905094805 | 40 | 225 | 0.0 | 0.0 | 0.00 | 0.00 | 0.00 | 86 | 1020.3 |
| 20260905091904 | 37 | 261 | 3.0 | 4.0 | 0.00 | 0.00 | 0.00 | 86 | 1020.3 |
| 20260905090905 | 40 | 256 | 2.0 | 4.0 | 0.00 | 0.00 | 0.00 | 86 | 1020.3 |
| 20260905085907 | 41 | 271 | 3.0 | 4.0 | 0.00 | 0.00 | 0.00 | 86 | 1020.3 |
| 20260905083907 | 41 | 237 | 0.0 | 2.0 | 0.00 | 0.00 | 0.00 | 85 | 1020.2 |
| 20260905082003 | 43 | 254 | 1.0 | 4.0 | 0.00 | 0.00 | 0.00 | 83 | 1020.2 |
| 20260905081004 | 43 | 271 | 2.0 | 4.0 | 0.00 | 0.00 | 0.00 | 84 | 1020.1 |
| 20260905075104 | 41 | 274 | 3.0 | 6.0 | 0.00 | 0.00 | 0.00 | 84 | 1020.4 |
| 20260905074106 | 43 | 261 | 3.0 | 5.0 | 0.00 | 0.00 | 0.00 | 83 | 1020.2 |
| 20260905072203 | 44 | 271 | 2.0 | 5.0 | 0.00 | 0.00 | 0.00 | 83 | 1020.0 |
| 20260905071203 | 44 | 247 | 1.0 | 2.0 | 0.00 | 0.00 | 0.00 | 82 | 1020.2 |
| 20260905070206 | 44 | 264 | 1.0 | 3.0 | 0.00 | 0.00 | 0.00 | 81 | 1020.0 |
| 20260905065210 | 45 | 261 | 0.0 | 4.0 | 0.00 | 0.00 | 0.00 | 81 | 1020.0 |
| 20260905063310 | 45 | 257 | 1.0 | 4.0 | 0.00 | 0.00 | 0.00 | 83 | 1019.9 |
| 20260905062406 | 45 | 271 | 2.0 | 3.0 | 0.00 | 0.00 | 0.00 | 81 | 1019.6 |
| 20260905061407 | 46 | 267 | 2.0 | 4.0 | 0.00 | 0.00 | 0.00 | 82 | 1019.4 |
| 20260905055409 | 45 | 247 | 0.0 | 1.0 | 0.00 | 0.00 | 0.00 | 84 | 1018.9 |
| 20260905054407 | 45 | 267 | 2.0 | 4.0 | 0.00 | 0.00 | 0.00 | 83 | 1018.9 |
| 20260905053409 | 45 | 202 | 0.0 | 0.0 | 0.00 | 0.00 | 0.00 | 82 | 1018.8 |
| 20260905052408 | 45 | 250 | 0.0 | 1.0 | 0.00 | 0.01 | 0.00 | 82 | 1018.9 |
| 20260905051409 | 45 | 270 | 0.0 | 1.0 | 0.00 | 0.02 | 0.00 | 82 | 1018.9 |
| 20260905050408 | 45 | 225 | 0.0 | 0.0 | 0.00 | 0.04 | 0.00 | 81 | 1019.2 |
| 20260905045408 | 45 | 225 | 0.0 | 0.0 | 0.00 | 0.06 | 0.00 | 80 | 1019.2 |
| 20260905044407 | 45 | 225 | 0.0 | 0.0 | 0.00 | 0.08 | 0.00 | 81 | 1019.3 |
| 20260905043506 | 45 | 218 | 2.0 | 3.0 | 0.00 | 0.09 | 0.00 | 80 | 1019.4 |
| 20260905042509 | 45 | 204 | 2.0 | 3.0 | 0.00 | 0.10 | 0.00 | 79 | 1019.5 |
| 20260905041508 | 45 | 112 | 0.0 | 0.0 | 0.00 | 0.11 | 0.00 | 78 | 1019.4 |
| 20260905040523 | 45 | 112 | 0.0 | 0.0 | 0.00 | 0.12 | 0.00 | 77 | 1019.5 |
| 20260905035509 | 46 | 112 | 0.0 | 1.0 | 0.00 | 0.16 | 0.00 | 77 | 1019.4 |
| 20260905034606 | 46 | 130 | 0.0 | 0.0 | 0.00 | 0.19 | 0.00 | 73 | 1019.4 |
| 20260905032607 | 47 | 259 | 2.0 | 4.0 | 0.00 | 0.23 | 0.00 | 70 | 1019.4 |
| 20260905031706 | 46 | 265 | 2.0 | 4.0 | 0.00 | 0.26 | 0.00 | 73 | 1019.3 |
| 20260905030708 | 47 | 223 | 1.0 | 1.0 | 0.00 | 0.30 | 0.00 | 73 | 1019.3 |
| 20260905025709 | 48 | 183 | 1.0 | 3.0 | 0.00 | 0.32 | 0.00 | 70 | 1019.4 |
| 20260905024806 | 49 | 224 | 0.0 | 1.0 | 0.00 | 0.35 | 0.00 | 68 | 1019.3 |
| 20260905023807 | 49 | 225 | 0.0 | 2.0 | 0.00 | 0.36 | 0.00 | 68 | 1019.2 |
| 20260905022808 | 49 | 180 | 0.0 | 0.0 | 0.00 | 0.38 | 0.00 | 70 | 1019.2 |
| 20260905021807 | 50 | 180 | 0.0 | 0.0 | 0.00 | 0.40 | 0.00 | 66 | 1019.2 |
| 20260905020806 | 51 | 202 | 0.0 | 1.0 | 0.00 | 0.41 | 0.00 | 64 | 1019.2 |
| 20260905015808 | 52 | 202 | 0.0 | 0.0 | 0.00 | 0.43 | 0.00 | 58 | 1019.0 |
| 20260905014809 | 53 | 315 | 0.0 | 0.0 | 0.00 | 0.45 | 0.00 | 54 | 1018.9 |
| 20260905013810 | 54 | 67 | 0.0 | 0.0 | 0.00 | 0.47 | 0.00 | 50 | 1018.8 |
| 20260905012809 | 55 | 337 | 0.0 | 0.0 | 0.00 | 0.49 | 0.00 | 48 | 1018.8 |
| 20260905011807 | 55 | 328 | 0.0 | 2.0 | 0.00 | 0.52 | 0.00 | 49 | 1018.7 |
| 20260905005808 | 56 | 225 | 0.0 | 1.0 | 0.00 | 0.56 | 0.00 | 49 | 1018.5 |
| 20260905004808 | 56 | 40 | 1.0 | 2.0 | 0.00 | 0.57 | 0.00 | 46 | 1018.5 |
| 20260905002822 | 58 | 344 | 2.0 | 3.0 | 0.00 | 0.60 | 0.00 | 42 | 1018.4 |
| 20260905000907 | 58 | 111 | 2.0 | 3.0 | 0.00 | 0.63 | 0.00 | 45 | 1018.3 |
| 20260904235907 | 59 | 82 | 1.0 | 3.0 | 0.00 | 0.65 | 0.00 | 43 | 1018.4 |
| 20260904234906 | 61 | 302 | 3.0 | 5.0 | 0.00 | 0.65 | 0.00 | 43 | 1018.4 |
| 20260904233909 | 60 | 77 | 6.0 | 8.0 | 0.00 | 0.66 | 0.00 | 45 | 1018.4 |
| 20260904233007 | 61 | 85 | 7.0 | 10.0 | 0.00 | 0.67 | 0.00 | 45 | 1018.4 |